NIMBUS 2 DEB, 59974

Orbit data source: Space-Track

NIMBUS 2 DEB, 59974 is space debris in SSO originally from a launch on Sun, 15 May 1966 UTC launched from the Air Force Western Test Range (AFWTR). Debris objects in space refer to the collection of defunct objects orbiting the Earth. Examples of debris include non-operational satellites, rocket bodies, and fragments generated from explosions, collisions, or faulty payload assembly.

Loading next visibility...
Identifier
59974, 1966-040CD
Orbit
SSO
Country
Flag of USUS
Related business
Manufacturer
Unknown
Mission
Spacecraft
Bus & Motor
Unknown
Mass
Unknown
Launch date (UTC)
1966-05-15 (60 years ago)
Launch vehicle
Unknown
Launch site
Air Force Western Test Range (AFWTR)
Object type
Payload
Rocket body
Debris
Shape & HBR
Unknown shape, 0.1 m
Radar Cross Section
Small (<0.1 m²)

Expand to show TLE details & history
Last TLE update: 2 weeks ago

TLE from 2 weeks ago
0 NIMBUS 2 DEB
1 59974U 66040CD  25324.67186777  .00002077  00000-0  36922-2 0  9995
2 59974 100.1315 120.1982 0043009 314.4535  45.3079 13.43191557429788
Epoch: 2025-11-20T16:07Z
TLE epoch observation values (Epoch: 2025-11-20T16:07:29.375Z)
Latitude
-0.00003°
Longitude
178.39992°
Altitude
1,077.629 km
Speed
7.324 km/s
True Right ascension
08h 00m 47s
True Declination
0° 00' 00"
Sunlit
Object was in daylight at epoch
Visualization orbit readout
Latitude
Unknown
Longitude
Unknown
Altitude
Unknown
Speed
Unknown
Apparent Right ascension
Unknown
Apparent Declination
Unknown
Sunlit
N/A
Visualization observer readout
Local Sidereal Time
19:34:36
Azimuth
Unknown
Elevation
Unknown
Doppler factor
Unknown
Orbital elements
Apogee altitude
1,126.887 km
Perigee altitude
1,062.607 km
Semi-major axis
7,472.884 km
Eccentricity
0.0043
Inclination
100.1315°
RAAN
120.1982°
Arg. of periapsis
314.4535°
True anomaly
45.65959°
Mean anomaly
45.3079°
Eccentric anomaly
45.48361°
Mean motion
3.35978 °/min
Orbital period
107.15 mins
BSTAR
0.0036922
Loading maneuver chart data...
Computing Atmospheric mass density...
Loading historical data...
Loading historical data...
Loading historical data...
Loading historical data...
Loading historical data...
Loading historical data...
Loading historical data...

Documentation

Showing up to 5 results
|